Location: Newark
(52.2090°N, 4.1550°W)
Time: 04:35:02
(UTC+00:00)

Explorer 7 - Pass Details

Date: 22 September 2019
Orbit: 485 x 680 km, 50.3° (Epoch: 15 October)

Event Time Altitude Azimuth Distance (km) Brightness Sun altitude
Rises 01:56:21 0° 273° (W) 2,925 - -32.7°
Reaches altitude 10° 01:58:38 10° 271° (W) 2,043 - -32.6°
Maximum altitude 02:03:20 67° 189° (S) 723 - -32.2°
Drops below altitude 10° 02:08:12 10° 108° (ESE) 2,111 - -31.7°
Exits shadow 02:08:15 10° 108° (ESE) 2,133 10.0 -31.7°
Sets 02:10:35 0° 106° (ESE) 3,031 10.8 -31.5°
